Temp
25 24 24 24 24 25 24 24 24 24 24 24 24 24 24 25 25 25 24 23 20 21 19 19 19 18 18 18 18 17 16 15 13 15 14 15 14 15 14 14 14 14 15
25 25 25 24 24 24 24 24 24 24 25 24 24 24 24 25 24 25 23 23 21 20 20 19 19 18 18 18 18 17 16 15 13 13 13 13 13 14 14 14 14 13 12
25 24 24 24 24 24 24 24 24 24 24 24 24 23 24 24 24 23 23 23 21 21 20 19 19 19 19 18 17 17 17 15 14 12 11 12 12 13 13 12 12 12 11
25 24 24 24 25 25 24 24 25 26 24 24 24 24 23 23 23 23 20 22 22 19 19 19 19 19 18 18 17 17 16 15 14 13 12 12 12 13 12 11 11 11 11
25 24 24 24 24 24 24 24 25 24 24 25 24 23 23 21 21 20 20 21 20 19 19 19 19 18 17 17 16 16 15 14 13 12 11 11 11 11 11 11 10 11 11
26 25 25 25 24 24 24 24 24 24 24 25 24 23 21 21 21 20 21 20 19 19 18 18 18 18 16 16 16 15 14 13 12 11 11 10 10 10 10 10 10 11 10
27 26 25 25 24 23 23 23 23 24 24 24 23 22 20 21 21 21 20 19 19 18 18 18 18 16 16 16 15 15 14 13 12 12 11 11 10 11 11 10 11 10 9
27 26 25 24 24 23 23 23 23 23 23 22 22 21 21 21 21 20 19 19 19 18 18 18 17 16 16 15 15 15 14 13 13 13 13 13 13 13 12 11 10 9 9
26 25 24 24 24 23 22 22 22 22 22 22 21 21 21 20 20 19 19 19 18 18 17 17 17 16 15 15 15 14 14 13 13 14 14 14 14 14 13 12 11 9 9
25 25 25 25 24 23 22 22 22 22 22 21 21 21 21 20 20 20 20 19 18 17 17 16 16 16 15 14 14 13 13 12 12 13 14 14 14 14 14 12 11 9 9
26 26 25 24 24 23 22 22 22 21 21 20 20 19 20 20 19 19 20 19 19 17 16 16 15 15 14 14 13 13 12 12 13 13 14 14 14 14 14 13 11 10 8
24 23 22 22 22 22 22 21 21 21 19 18 18 18 18 19 19 19 19 19 18 18 17 16 15 14 14 13 13 12 12 12 13 13 13 13 13 13 13 13 11 10 10
22 21 21 21 21 22 22 20 19 18 17 16 16 16 17 17 18 18 18 18 17 17 16 15 15 14 13 13 12 12 12 12 12 12 12 12 12 13 14 14 13 12 10
21 21 21 21 21 20 20 19 18 17 16 16 15 15 16 17 17 17 17 17 16 16 15 15 14 13 13 12 12 12 12 12 12 12 12 12 13 13 13 13 12 12 10
21 20 20 20 20 19 19 18 18 18 20 18 17 18 17 16 17 17 17 17 16 16 15 14 13 13 12 12 11 11 12 12 12 12 12 12 13 13 13 13 12 11 9
20 19 18 18 18 18 18 17 18 19 20 20 20 20 18 18 17 17 17 17 16 15 15 14 13 12 11 11 11 11 11 11 12 12 12 12 12 12 13 12 12 10 9
19 18 18 18 18 18 18 18 16 17 19 19 19 19 19 17 16 16 17 16 15 15 15 13 12 11 11 11 11 11 10 11 11 12 12 12 12 12 13 12 11 11 10
19 18 18 19 19 19 19 19 18 17 16 15 17 17 17 17 16 16 16 15 15 15 14 13 12 11 11 11 11 10 10 11 11 11 12 12 12 12 12 12 11 10 10
19 19 20 20 20 20 19 18 18 17 16 15 15 15 15 16 16 16 16 16 15 14 13 12 12 11 11 11 10 10 10 10 11 11 11 12 12 12 11 12 12 12 11
18 19 19 19 19 18 18 17 17 16 15 15 15 14 14 15 15 15 15 15 14 14 13 12 11 11 11 10 10 10 10 10 11 11 11 11 12 12 12 12 12 11 9
18 19 19 18 18 18 17 17 17 16 15 15 15 15 15 16 15 15 15 14 14 14 13 12 11 11 10 10 10 10 10 10 10 11 11 11 12 12 12 12 12 11 10
19 18 18 18 17 17 17 17 16 16 15 15 14 14 15 16 15 15 15 14 14 13 12 12 11 11 10 10 10 9 9 10 10 11 11 11 11 11 11 12 12 11 10
19 18 18 17 17 17 16 16 16 15 15 15 15 14 15 15 15 15 14 14 13 13 12 11 11 11 10 10 10 9 9 10 10 11 11 11 11 11 11 11 11 11 10
19 19 18 17 17 16 16 15 15 16 15 15 15 15 15 15 15 15 14 14 13 12 11 11 10 10 10 10 9 9 9 10 10 11 11 11 11 11 11 11 11 10 10
20 19 19 18 17 16 16 16 15 15 15 15 14 14 15 15 14 14 14 13 12 12 11 10 10 10 10 9 9 9 9 10 10 10 11 11 11 11 11 10 10 10 9
20 20 19 18 18 17 17 16 16 16 14 14 14 14 15 15 15 14 13 13 12 11 11 10 10 10 10 9 9 9 9 9 10 10 11 11 11 11 10 10 10 9 8
Height
757 761 765 769 772 775 777 778 781 786 789 793 797 800 800 800 798 801 803 808 807 806 804 805 809 812 816 817 818 820 820 818 815 805 802 796 792 787 782 777 772 766 758
747 753 756 762 766 768 770 773 776 780 782 786 789 791 792 791 790 793 796 796 803 802 803 806 807 810 815 818 818 819 817 815 811 804 798 794 789 784 778 771 765 759 752
741 745 750 755 759 759 762 766 770 774 776 780 781 783 782 784 785 790 793 793 797 801 804 805 808 811 812 817 817 816 813 810 807 803 797 792 786 780 773 768 760 751 743
734 739 743 745 747 750 755 759 763 766 770 772 773 775 777 780 774 779 788 786 789 797 805 807 810 812 814 815 814 813 810 807 804 799 795 790 785 778 773 764 753 746 736
729 732 735 738 742 747 750 753 756 761 764 766 768 771 772 767 753 783 785 783 790 798 804 808 811 813 814 815 813 811 807 804 800 796 793 788 783 777 771 764 756 745 732
721 723 729 732 735 738 742 746 751 755 758 761 765 767 771 772 772 785 785 787 794 799 806 809 809 811 813 813 812 808 805 802 798 795 792 788 783 778 772 764 755 744 732
714 718 722 726 731 734 738 742 745 749 754 758 763 766 769 773 773 779 786 791 796 800 805 807 808 810 812 811 809 806 804 801 798 795 792 789 783 778 771 762 755 748 739
708 711 716 721 726 731 735 740 745 747 751 757 760 764 768 772 776 782 787 792 795 799 803 805 808 809 810 809 807 804 802 799 798 796 792 788 784 778 773 766 756 747 738
705 710 714 719 725 729 734 739 744 748 751 756 760 762 767 772 777 783 787 791 794 799 802 804 808 809 809 809 807 804 802 800 798 796 792 788 784 779 772 763 754 747 734
704 709 713 717 722 727 732 738 743 747 751 756 759 764 768 772 780 784 788 791 794 799 802 805 808 808 809 809 807 805 802 800 797 794 791 787 783 778 773 766 760 754 745
703 706 710 715 720 726 731 736 742 748 753 758 761 768 771 775 782 786 789 792 795 800 803 806 808 809 809 809 808 807 805 802 799 795 791 788 784 778 774 768 764 758 753
706 710 714 717 720 724 731 737 742 748 755 760 764 770 775 779 783 788 791 794 798 800 803 807 809 810 810 810 809 808 806 804 801 797 793 790 786 781 777 772 768 764 760
709 715 720 722 725 729 732 738 744 751 757 761 766 771 777 782 786 790 793 797 800 802 805 808 808 809 811 811 810 810 808 806 802 799 796 793 790 786 781 776 773 769 766
711 716 721 725 730 732 736 742 747 754 759 762 768 773 779 783 787 791 795 798 801 804 806 808 810 811 811 814 813 811 810 808 805 802 799 796 792 788 784 781 777 773 770
713 719 724 728 732 736 742 747 752 756 757 761 768 773 778 784 788 791 796 799 802 804 806 808 811 812 812 813 814 814 812 810 808 806 802 799 795 792 789 786 783 779 777
716 722 728 732 736 740 745 750 756 760 763 767 770 774 779 784 788 793 797 800 803 805 807 808 810 813 814 814 816 815 814 813 811 809 806 802 799 796 793 791 789 786 785
716 723 729 734 739 743 749 753 757 765 768 771 776 779 781 784 791 795 797 800 804 807 807 809 812 814 815 818 819 816 816 816 814 811 809 806 803 801 799 797 795 793 792
719 725 731 737 743 748 752 755 758 762 767 773 778 782 784 786 791 794 797 801 805 808 809 811 814 815 817 817 819 820 817 817 816 814 812 810 807 805 804 802 801 800 799
722 728 734 739 745 749 753 756 760 763 768 773 778 783 787 790 794 797 799 802 804 807 810 812 815 816 817 819 819 821 819 819 818 817 815 813 811 809 808 808 807 806 804
726 730 734 740 745 750 753 756 760 764 768 772 777 781 786 790 794 798 801 804 806 807 811 813 815 817 818 818 820 821 821 820 820 819 818 816 815 813 812 812 811 810 810
727 732 736 741 745 748 751 755 759 763 768 772 777 781 785 788 793 797 801 805 806 810 812 814 816 818 819 820 820 820 820 820 821 820 820 818 818 817 816 816 816 815 816
728 733 738 741 744 748 752 756 759 763 768 773 778 783 788 792 795 798 801 804 808 811 813 815 816 817 817 817 820 821 821 821 821 821 821 821 820 820 819 819 819 819 820
729 734 739 742 746 749 753 758 761 765 769 773 779 784 789 791 795 798 801 804 808 811 814 815 816 818 819 819 819 821 821 822 822 822 822 822 822 822 822 823 823 824 825
728 732 737 743 747 751 755 758 763 766 770 774 779 783 788 792 794 799 802 805 807 811 814 816 818 818 819 821 821 822 824 823 823 824 824 824 824 825 825 826 827 828 829
727 730 734 739 745 750 755 760 762 765 770 774 779 782 787 792 795 798 802 806 809 811 814 817 818 820 821 821 821 822 824 825 825 825 825 826 827 828 828 830 831 833 834
726 729 732 736 739 745 749 756 761 763 768 773 778 781 785 789 794 797 802 806 809 812 815 817 819 820 820 822 822 824 824 825 826 826 826 827 829 830 831 833 835 836 838
Wind_Speed
41 42 41 41 42 44 44 43 40 37 34 30 26 23 22 24 24 21 22 17 12 15 13 13 12 10 12 9 11 11 13 12 10 17 17 30 31 31 29 29 30 33 36
43 41 42 41 39 40 42 41 39 37 35 30 26 25 23 24 25 23 18 20 17 15 10 9 11 10 9 10 11 12 11 10 10 16 18 26 26 29 30 33 34 35 35
36 37 38 36 37 42 42 40 38 35 34 30 27 24 27 29 27 24 19 15 16 13 10 10 7 8 8 11 11 10 10 11 13 13 13 22 22 25 33 29 32 34 33
36 34 34 38 43 43 41 39 37 35 31 29 27 26 25 23 27 20 18 10 7 13 11 8 6 8 10 9 7 7 11 15 15 16 17 18 20 27 24 26 32 34 37
32 33 35 37 36 35 35 37 36 31 29 26 24 21 23 15 21 15 10 10 13 14 6 3 5 5 6 4 4 7 11 12 14 15 13 14 16 24 22 24 24 30 40
36 36 36 36 35 36 35 34 32 29 25 23 20 16 12 9 10 9 11 15 13 10 8 7 7 5 3 2 5 7 8 12 12 10 9 13 17 21 24 26 23 27 13
35 34 34 34 32 31 31 30 28 26 22 20 15 13 3 9 13 13 11 13 11 13 11 10 7 4 1 3 5 7 8 11 11 12 15 17 19 24 27 29 26 27 28
34 33 31 30 29 26 25 24 24 22 18 14 12 11 14 16 16 16 13 12 15 13 11 8 5 5 5 6 8 11 14 12 14 15 15 16 19 20 23 26 25 26 27
27 27 24 23 22 22 20 18 18 15 14 14 14 17 21 20 17 16 15 18 17 13 10 9 7 7 8 8 11 14 15 15 14 15 13 16 18 19 23 29 30 25 22
17 17 16 17 19 19 17 14 14 17 15 17 21 22 21 24 17 17 17 18 17 15 14 12 9 8 8 8 12 14 16 18 18 18 17 18 21 22 24 25 27 20 21
9 10 12 14 17 16 16 17 17 20 22 26 28 25 26 24 20 17 14 14 15 17 14 12 9 7 7 9 12 14 15 15 15 17 19 21 23 25 26 25 23 26 22
11 11 12 15 17 16 18 19 24 27 30 29 32 28 24 21 19 15 13 11 13 13 12 11 9 7 7 9 12 13 13 13 14 18 22 23 23 25 26 23 22 28 30
19 18 16 15 15 17 25 28 28 28 27 26 26 28 24 21 19 16 15 14 11 12 13 10 9 8 6 9 12 11 13 15 17 19 20 20 20 21 24 24 21 25 27
24 24 21 22 22 23 25 27 27 25 23 27 25 26 25 22 20 19 17 16 14 13 13 11 10 7 7 9 9 11 14 16 17 17 18 19 19 21 24 26 23 22 21
26 23 24 24 26 26 24 21 22 22 26 31 30 31 28 24 21 19 18 18 15 13 15 14 11 7 7 9 9 11 13 15 17 16 18 18 20 21 23 23 27 23 20
26 24 25 27 27 28 27 24 19 17 18 20 23 23 22 21 22 20 19 14 13 15 13 11 9 7 8 9 9 9 13 13 15 15 17 19 18 20 22 22 25 25 21
30 28 27 27 27 28 26 28 24 19 18 19 18 18 18 23 21 21 19 18 17 13 12 11 9 8 7 6 7 9 10 11 13 14 16 18 18 18 20 21 21 23 21
27 29 28 27 25 26 25 25 26 24 22 20 18 16 18 22 23 22 20 19 16 11 11 10 9 7 5 5 5 7 9 10 11 13 15 16 17 16 17 18 18 17 18
29 28 28 28 24 23 23 22 22 23 23 22 21 20 20 22 22 20 18 18 17 13 11 10 8 6 4 6 6 6 8 10 11 12 14 15 16 14 14 15 17 20 21
27 29 30 28 26 24 23 23 22 22 23 24 24 27 28 26 23 21 18 16 15 13 11 10 8 6 6 7 5 5 6 8 10 11 12 13 14 13 13 15 15 16 17
29 29 28 27 26 25 25 24 23 24 24 23 26 28 29 28 25 21 20 16 13 11 10 9 7 6 5 4 4 3 5 6 8 10 11 12 12 12 11 14 14 15 17
29 28 27 26 25 25 24 23 25 26 25 27 26 25 22 21 22 21 19 15 12 10 9 8 7 5 4 4 3 4 6 6 7 9 11 11 10 10 10 13 14 15 16
28 27 25 25 25 25 23 23 24 26 26 27 26 23 21 21 22 22 19 15 13 13 10 8 6 5 5 5 6 7 8 7 7 8 9 10 10 9 11 14 15 15 15
28 28 27 25 25 25 24 23 22 24 25 26 26 24 24 24 24 21 17 16 15 13 11 8 6 5 6 7 9 9 7 7 7 8 9 10 10 10 13 15 15 16 16
27 29 28 28 26 24 23 21 22 24 25 27 27 25 25 25 23 21 18 16 14 14 11 8 7 6 7 9 10 9 9 8 8 7 8 10 10 11 13 15 15 15 15
26 28 29 28 28 27 25 24 24 25 24 25 28 28 27 27 25 22 19 17 16 14 11 9 8 7 8 9 9 8 8 7 5 7 7 9 10 12 14 16 15 15 14
Wind_Direction
220 223 225 230 234 241 243 247 251 256 258 258 255 248 246 251 250 251 251 256 242 285 284 243 240 264 221 258 248 257 257 246 255 296 305 324 327 335 332 331 325 321 320
221 221 226 229 233 238 243 246 251 256 260 260 256 246 240 242 241 238 233 242 285 306 260 242 265 209 243 250 253 265 275 280 276 294 321 324 325 339 340 336 334 326 312
217 219 223 226 229 237 242 246 251 256 259 259 257 249 243 241 240 231 231 234 290 284 238 253 225 215 242 242 259 278 295 305 310 308 320 321 326 339 337 334 327 319 318
217 217 219 224 231 236 239 244 250 254 255 256 256 255 250 245 247 234 216 256 206 222 236 250 235 245 240 243 257 291 311 316 322 335 327 328 327 336 334 326 327 332 328
214 216 221 227 230 233 237 244 250 251 254 257 258 256 254 232 242 218 208 176 194 199 238 199 225 210 231 248 298 315 320 326 339 339 335 329 331 332 337 326 316 327 334
217 219 225 229 228 230 234 239 244 246 248 252 254 256 222 216 165 191 178 174 187 185 169 173 166 182 188 307 335 344 351 347 346 339 328 327 325 330 330 321 317 333 335
219 221 224 227 228 230 232 232 230 236 241 241 240 238 172 147 126 143 165 172 175 155 177 163 159 154 143 12 17 17 2 359 360 342 329 335 327 340 337 328 328 325 325
222 224 226 223 224 226 225 226 229 231 220 212 211 152 140 131 132 148 152 156 150 160 156 152 151 124 72 35 26 12 6 11 7 357 350 352 348 350 348 344 338 323 327
223 227 223 220 219 220 210 212 216 204 195 179 161 142 140 137 138 141 151 147 143 136 131 127 117 96 68 38 20 14 13 15 11 6 9 9 2 3 1 1 2 348 347
221 222 219 217 214 213 203 189 186 192 166 151 143 140 137 127 136 141 149 147 137 135 127 116 106 85 64 40 24 16 11 6 4 8 16 18 16 16 17 16 10 359 352
180 179 183 193 197 198 178 174 162 151 147 144 133 133 131 131 139 143 145 143 146 137 129 126 113 88 78 43 28 19 11 2 12 20 24 22 22 22 21 24 29 25 8
133 138 152 163 165 167 153 153 148 147 142 133 133 131 131 135 137 137 134 136 143 139 137 130 113 103 77 49 27 17 13 16 20 25 26 21 22 21 25 37 48 49 39
120 122 123 129 143 154 148 139 135 139 135 132 129 132 134 136 135 136 136 139 140 138 133 126 120 113 79 41 23 22 23 26 27 27 22 19 27 29 32 39 57 56 44
119 120 130 134 132 133 132 136 137 136 135 135 135 137 140 141 145 145 142 143 142 136 133 128 129 113 74 38 42 43 33 32 31 25 25 29 37 40 40 39 44 49 45
122 128 129 131 130 126 125 131 141 151 154 151 151 150 150 156 157 150 151 147 145 140 135 126 118 104 74 64 55 44 35 35 31 30 31 33 39 43 43 45 49 57 50
127 130 132 129 126 123 121 118 128 132 142 152 153 152 161 155 154 152 146 146 146 146 133 123 114 99 88 77 54 45 38 34 30 32 37 37 39 45 50 54 59 56 51
141 137 136 134 132 132 131 128 117 123 136 145 147 149 153 154 155 152 144 142 143 148 125 122 116 107 103 74 59 53 40 33 33 39 40 38 44 51 55 55 63 65 58
139 139 137 137 138 141 142 140 139 140 136 139 148 153 157 150 155 154 148 146 141 136 120 119 115 113 109 89 91 58 51 43 40 44 46 45 45 54 62 57 61 70 71
141 144 145 142 145 147 147 145 145 144 141 138 141 145 148 146 150 154 158 153 145 135 123 119 121 122 112 120 101 67 64 52 47 50 50 47 45 59 70 64 71 82 81
147 151 149 149 151 149 149 146 146 145 144 146 147 148 150 151 152 154 156 153 143 132 129 126 125 118 127 132 109 74 77 64 56 56 56 52 47 58 77 80 79 88 83
153 157 157 156 155 154 153 152 154 153 150 151 155 159 164 164 159 160 159 154 142 137 139 138 132 129 128 143 143 109 105 84 68 62 62 58 52 58 89 91 91 96 104
157 161 164 161 157 157 157 157 156 155 153 152 153 159 166 168 165 160 155 147 141 141 143 145 142 140 137 141 159 139 125 104 87 72 72 67 59 64 103 108 100 101 105
162 162 163 160 160 159 158 158 158 159 158 160 161 162 169 169 164 156 150 148 148 151 150 147 143 132 121 112 120 127 125 111 101 83 80 77 67 76 112 111 107 106 107
168 165 164 164 164 164 164 162 162 165 165 166 169 167 169 166 159 154 151 153 156 157 156 153 146 132 123 114 120 117 112 107 109 97 88 93 84 95 114 114 109 111 112
170 170 170 171 170 170 170 171 170 171 174 174 174 171 172 170 165 162 160 161 161 165 164 160 150 145 140 136 131 120 112 106 102 108 100 111 103 106 117 119 117 116 117
180 182 184 180 178 180 179 180 183 181 182 180 179 175 174 175 176 172 166 167 170 168 165 160 159 155 148 148 141 135 129 122 114 118 118 127 126 126 126 122 120 117 118